1498892400.15,49085,16.19,73320.3,4.33,3.85,3.85,0,*79
1498892401.36,49086,16.19,73322.3,4.35,3.93,3.93,0,*7C
1498892402.57,49087,16.19,73324.3,4.35,3.89,3.89,0,*7D
1498892403.77,49088,16.19,73320.5,4.39,3.93,3.89,0,*75
1498892404.98,49089,16.19,73320.8,4.39,3.93,3.93,0,*7F
1498892406.19,49090,16.19,73322.3,4.35,3.93,3.89,0,*70
1498892407.39,49091,16.19,73322.3,4.39,3.93,3.89,0,*7D
1498892408.65,49092,16.19,73322.0,4.35,3.67,3.67,0,*79
1498892409.9,49093,16.19,73322.0,4.39,3.71,3.67,0,*73
1498892411.15,49094,16.19,73320.8,4.35,3.71,3.71,0,*7F
1498892412.35,49095,16.19,73322.5,4.39,3.81,3.81,0,*72
1498892413.56,49096,16.19,73322.5,4.35,3.93,3.89,0,*76
1498892414.77,49097,16.19,73322.0,4.35,3.93,3.93,0,*7C
1498892415.99,49098,16.19,73320.0,4.35,3.93,4.01,0,*7F
1498892417.22,49099,16.19,73322.3,4.35,3.93,4.01,0,*7E
1498892418.41,49100,16.19,73320.5,4.35,3.63,3.63,0,*73
1498892419.67,49101,16.19,73320.0,4.35,3.67,3.67,0,*72
1498892420.92,49102,16.19,73318.5,4.35,3.71,3.67,0,*76
1498892422.17,49103,16.19,73322.8,4.35,3.71,3.67,0,*77
1498892423.42,49104,16.19,73322.0,4.35,3.67,3.67,0,*77
1498892424.68,49105,16.19,73320.0,4.35,3.67,3.67,0,*76
1498892425.93,49106,16.19,73322.3,4.35,3.67,3.67,0,*75
1498892427.19,49107,16.19,73326.3,4.35,3.71,3.71,0,*74
1498892428.44,49108,16.19,73324.0,4.35,3.67,3.71,0,*7C
1498892429.69,49109,16.19,73320.0,4.35,3.71,3.67,0,*7D
1498892430.95,49110,16.19,73320.0,4.35,3.67,3.67,0,*72
1498892432.19,49111,16.19,73320.5,4.35,3.19,3.23,0,*7A
1498892433.41,49112,16.19,73322.3,4.33,3.49,3.53,0,*7D
1498892434.59,49113,16.19,73320.5,4.33,3.59,3.59,0,*77
1498892435.77,49114,16.19,73322.5,4.33,3.59,3.63,0,*79
1498892437.0,49115,16.19,73318.5,4.33,3.67,3.67,0,*71
1498892438.26,49116,16.19,73320.0,4.31,3.79,3.67,0,*7F
1498892439.43,49117,16.19,73320.0,4.33,3.63,3.63,0,*73
1498892440.66,49118,16.19,73320.3,4.33,3.49,3.41,0,*74
1498892441.87,49119,16.19,73320.8,4.31,3.59,3.59,0,*7F
1498892443.13,49120,16.19,73318.0,4.31,3.67,3.67,0,*75
1498892444.39,49121,16.19,73322.3,4.31,3.75,3.67,0,*77
1498892445.64,49122,16.19,73320.8,4.31,3.79,3.79,0,*77
1498892446.85,49123,16.19,73320.5,4.33,3.79,3.85,0,*77
1498892448.08,49124,16.19,73320.0,4.33,3.75,3.79,0,*7F
1498892449.32,49125,16.19,73322.8,4.33,3.75,3.75,0,*72
1498892450.55,49126,16.19,73320.0,4.31,3.67,3.63,0,*77
1498892451.73,49127,16.19,73322.3,4.33,3.63,3.63,0,*70
1498892452.93,49128,16.19,73322.3,4.31,3.63,3.63,0,*7D
1498892454.13,49129,16.19,73318.3,4.33,3.59,3.53,0,*74
1498892455.33,49130,16.19,73320.0,4.31,3.59,3.59,0,*74
1498892456.51,49131,16.19,73320.5,4.33,3.59,3.59,0,*77
1498892457.68,49132,16.19,73322.3,4.33,3.59,3.59,0,*74
1498892458.86,49133,16.19,73320.5,4.33,3.59,3.59,0,*75
1498892460.12,49134,16.19,73320.5,4.31,3.41,3.49,0,*78
1498892461.38,49135,16.19,73320.0,4.31,3.41,3.37,0,*70
1498892462.65,49136,16.19,73322.0,4.31,3.41,3.41,0,*72
1498892463.85,49137,16.19,73322.3,4.31,3.59,3.59,0,*73
1498892465.02,49138,16.19,73320.8,4.29,3.55,3.55,0,*75
1498892466.2,49139,16.19,73322.0,4.29,3.55,3.59,0,*78
1498892467.4,49140,16.19,73322.3,4.31,3.59,3.59,0,*73
1498892468.65,49141,16.19,73316.0,4.31,3.49,3.49,0,*72
1498892469.85,49142,16.19,73320.8,4.29,3.49,3.55,0,*75
1498892471.07,49143,16.19,73320.8,4.27,3.53,3.53,0,*77
1498892472.24,49144,16.19,73318.8,4.29,3.55,3.55,0,*7E
1498892473.42,49145,16.19,73322.8,4.29,3.59,3.59,0,*7F
1498892474.65,49146,16.19,73322.8,4.29,3.49,3.49,0,*7C
1498892475.87,49147,16.19,73322.0,4.29,3.53,3.53,0,*7D
1498892477.09,49148,16.19,73320.8,4.27,3.45,3.45,0,*7C
1498892478.32,49149,16.19,73318.0,4.29,3.49,3.49,0,*73
1498892479.55,49150,16.19,73322.0,4.27,3.41,3.41,0,*75
1498892480.79,49151,16.19,73322.8,4.29,3.45,3.45,0,*7A
1498892482.01,49152,16.19,73320.5,4.27,3.45,3.45,0,*77
1498892483.24,49153,16.19,73320.5,4.27,3.45,3.45,0,*76
1498892484.46,49154,16.19,73320.8,4.27,3.53,3.45,0,*76
1498892485.63,49155,16.19,73322.3,4.29,3.55,3.55,0,*7E
1498892486.84,49156,16.19,73322.0,4.27,3.53,3.53,0,*73
1498892488.01,49157,16.19,73322.8,4.27,3.55,3.55,0,*72
1498892489.22,49158,16.19,73320.0,4.27,3.53,3.53,0,*7D
1498892490.44,49159,16.19,73318.3,4.27,3.33,3.41,0,*79
1498892491.65,49160,16.19,73318.0,4.27,3.29,3.41,0,*78
1498892492.85,49161,16.19,73322.8,4.27,3.23,3.29,0,*7D
1498892494.05,49162,16.19,73322.0,4.27,3.29,3.33,0,*7F
1498892495.3,49163,16.19,73322.3,4.25,3.33,3.33,0,*77
1498892496.56,49164,16.19,73322.5,4.25,3.41,3.41,0,*70
1498892497.81,49165,16.19,73316.5,4.25,3.41,3.41,0,*71
1498892499.07,49166,16.19,73322.0,4.25,3.41,3.41,0,*72
1498892500.31,49167,16.19,73320.8,4.23,3.41,3.41,0,*75
1498892501.53,49168,16.19,73322.0,4.23,3.53,3.41,0,*79
1498892502.79,49169,16.19,73320.5,4.25,3.45,3.45,0,*7D
1498892504.01,49170,16.19,73318.0,4.23,3.49,3.37,0,*7A
1498892505.25,49171,16.19,73322.8,4.25,3.45,3.53,0,*73
1498892506.51,49172,16.19,73320.8,4.25,3.41,3.45,0,*73
1498892507.71,49173,16.19,73318.0,4.23,3.25,3.15,0,*73
1498892508.94,49174,16.19,73320.0,4.23,2.81,2.81,0,*77
1498892510.18,49175,16.19,73318.8,4.23,3.15,3.15,0,*76
1498892511.4,49176,16.19,73318.3,4.19,3.15,3.23,0,*79
1498892512.63,49177,16.19,73322.8,4.21,3.25,3.37,0,*75
1498892513.88,49178,16.19,73318.5,4.21,3.37,3.37,0,*79
1498892515.12,49179,16.19,73322.3,4.19,3.41,3.41,0,*73
1498892516.37,49180,16.19,73322.3,4.21,3.49,3.41,0,*76
1498892517.62,49181,16.19,73320.3,4.21,3.49,3.49,0,*7F
1498892518.85,49182,16.19,73322.8,4.19,3.45,3.49,0,*7B
1498892520.07,49183,16.19,73322.5,4.19,3.49,3.49,0,*76
1498892521.3,49184,16.19,73320.8,4.19,3.53,3.49,0,*7A
1498892522.49,49185,16.19,73320.5,4.21,3.55,3.63,0,*7E
1498892523.71,49186,16.19,73324.5,4.21,3.55,3.67,0,*79
1498892524.93,49187,16.19,73320.0,4.21,3.63,3.67,0,*7D
1498892526.19,49188,16.19,73320.8,4.21,3.67,3.67,0,*76
1498892527.41,49189,16.19,73322.5,4.21,3.63,3.67,0,*73
1498892528.62,49190,16.19,73318.8,4.19,3.75,3.59,0,*7A
1498892529.86,49191,16.19,73320.8,4.21,3.53,3.53,0,*7E
1498892531.08,49192,16.19,73320.5,4.21,3.53,3.55,0,*7B
1498892532.3,49193,16.19,73322.3,4.21,3.63,3.67,0,*78
1498892533.47,49194,16.19,73322.5,4.19,3.63,3.63,0,*70
1498892534.73,49195,16.19,73320.0,4.21,3.75,3.71,0,*7E
1498892535.96,49196,16.19,73320.3,4.19,3.71,3.71,0,*72
1498892537.16,49197,16.19,73326.0,4.19,3.71,3.85,0,*78
1498892538.39,49198,16.19,73320.3,4.21,3.37,3.25,0,*74
1498892539.64,49199,16.19,73320.8,4.21,3.37,3.41,0,*77
1498892540.87,49200,16.19,73320.5,4.19,3.37,3.33,0,*7A
1498892542.1,49201,16.19,73320.3,4.19,3.37,3.45,0,*7A
1498892543.33,49202,16.19,73322.0,4.19,3.07,3.03,0,*78
1498892544.57,49203,16.19,73322.3,4.19,3.15,3.15,0,*7D
1498892545.77,49204,16.19,73322.8,4.19,2.99,3.03,0,*78
1498892546.99,49205,16.19,73320.0,4.19,2.77,2.77,0,*7B
1498892548.25,49206,16.19,73320.8,4.21,3.03,3.03,0,*73
1498892549.5,49207,16.19,73322.5,4.17,2.69,2.69,0,*77
1498892550.7,49208,16.19,73322.3,4.17,2.99,2.91,0,*70
1498892551.93,49209,16.19,73324.0,4.13,1.79,1.55,0,*73
1498892553.16,49210,16.19,73324.5,4.11,0.91,0.75,0,*7D
1498892554.41,49211,16.19,73324.0,4.09,0.79,0.75,0,*73
1498892555.59,49212,16.19,73322.5,4.07,1.79,1.79,0,*72
1498892556.85,49213,16.19,73324.0,4.05,2.51,2.43,0,*72
1498892558.06,49214,16.19,73326.0,4.05,2.65,2.65,0,*76
1498892559.29,49215,16.19,73324.3,4.07,2.89,2.81,0,*7D
1498892560.49,49216,16.19,73322.3,4.05,2.99,2.99,0,*74
1498892561.75,49217,16.19,73322.8,4.05,2.69,2.69,0,*75
1498892563.0,49218,16.19,73324.8,4.05,2.77,2.77,0,*7A
1498892564.2,49219,16.19,73324.3,4.05,2.99,2.99,0,*7B
1498892565.43,49220,16.19,73324.8,4.03,3.19,3.11,0,*7F
1498892566.65,49221,16.19,73324.3,4.03,3.23,3.19,0,*7F
1498892567.91,49222,16.19,73322.5,4.05,3.33,3.33,0,*73
1498892569.16,49223,16.19,73320.3,4.05,3.33,3.33,0,*72
1498892570.42,49224,16.19,73322.3,4.05,3.33,3.33,0,*75
1498892571.67,49225,16.19,73324.8,4.05,3.33,3.33,0,*74
1498892572.93,49226,16.19,73324.0,4.05,3.33,3.33,0,*77
1498892574.18,49227,16.19,73322.0,4.05,3.33,3.33,0,*76
1498892575.39,49228,16.19,73320.5,4.05,3.25,3.25,0,*79
1498892576.6,49229,16.19,73322.8,4.05,3.25,3.25,0,*78
1498892577.83,49230,16.19,73320.5,4.05,3.25,3.15,0,*73
1498892579.09,49231,16.19,73322.5,4.05,3.03,3.03,0,*71
1498892580.35,49232,16.19,73322.0,4.05,3.23,3.11,0,*73
1498892581.58,49233,16.19,73322.5,4.03,3.23,3.23,0,*75
1498892582.75,49234,16.19,73322.5,4.03,3.29,3.29,0,*72
1498892583.98,49235,16.19,73320.5,4.03,3.11,3.19,0,*7B
1498892585.21,49236,16.19,73322.0,4.03,3.11,3.07,0,*77
1498892586.43,49237,16.19,73324.5,4.03,3.19,3.07,0,*7E
1498892587.65,49238,16.19,73322.5,4.03,3.19,3.19,0,*7E
1498892588.85,49239,16.19,73320.3,4.03,3.23,3.29,0,*75
1498892590.11,49240,16.19,73322.0,4.05,3.23,3.23,0,*77
1498892591.36,49241,16.19,73322.8,4.05,2.89,2.77,0,*77
1498892592.58,49242,16.19,73322.3,4.03,2.85,2.85,0,*73
1498892593.81,49243,16.19,73320.8,4.03,3.11,3.07,0,*75
1498892595.04,49244,16.19,73322.3,4.03,3.23,3.23,0,*75
1498892596.23,49245,16.19,73322.3,4.03,3.33,3.29,0,*7F
1498892597.46,49246,16.19,73326.3,4.03,3.33,3.37,0,*73
1498892598.68,49247,16.19,73324.3,4.03,3.33,3.37,0,*72
1498892599.9,49248,16.19,73320.0,4.03,3.37,3.37,0,*79
1498892601.13,49249,16.19,73324.5,4.03,3.33,3.37,0,*7C
1498892602.35,49250,16.19,73324.0,4.03,3.33,3.37,0,*74
1498892603.57,49251,16.19,73322.3,4.03,3.37,3.37,0,*71
1498892604.84,49252,16.19,73322.3,4.05,3.37,3.41,0,*75
1498892606.09,49253,16.19,73324.8,4.05,3.41,3.37,0,*74
1498892607.33,49254,16.19,73324.0,4.05,2.99,3.03,0,*70
1498892608.55,49255,16.19,73322.0,4.07,3.33,3.33,0,*71
1498892609.81,49256,16.19,73322.5,4.05,3.37,3.37,0,*70
1498892611.04,49257,16.19,73324.0,4.05,3.25,3.33,0,*76
1498892612.3,49258,16.19,73326.5,4.05,3.37,3.37,0,*7E
1498892613.56,49259,16.19,73326.8,4.05,3.41,3.41,0,*7F
1498892614.82,49260,16.19,73324.0,4.05,3.37,3.37,0,*75
1498892616.05,49261,16.19,73326.3,4.05,3.23,3.25,0,*72
1498892617.31,49262,16.19,73322.0,4.05,3.33,3.33,0,*77
1498892618.57,49263,16.19,73324.5,4.05,3.41,3.41,0,*76
1498892619.83,49264,16.19,73322.5,4.05,3.37,3.41,0,*70
1498892621.07,49265,16.19,73326.5,4.07,3.41,3.41,0,*72
1498892622.3,49266,16.19,73320.3,4.07,3.49,3.41,0,*79
1498892623.53,49267,16.19,73322.0,4.07,3.37,3.37,0,*70
1498892624.78,49268,16.19,73328.0,4.05,3.37,3.37,0,*7D
1498892626.01,49269,16.19,73326.0,4.07,3.37,3.37,0,*7E
1498892627.27,49270,16.19,73324.5,4.05,3.41,3.37,0,*75
1498892628.5,49271,16.19,73322.3,4.07,3.37,3.37,0,*77
1498892629.76,49272,16.19,73322.5,4.05,3.41,3.37,0,*77
1498892631.01,49273,16.19,73320.5,4.05,3.37,3.33,0,*73
1498892632.24,49274,16.19,73324.3,4.07,3.37,3.33,0,*76
1498892633.45,49275,16.19,73320.5,4.05,3.25,3.25,0,*71
1498892634.69,49276,16.19,73324.5,4.07,3.15,3.15,0,*70
1498892635.9,49277,16.19,73324.0,4.07,3.03,2.99,0,*73
1498892637.15,49278,16.19,73324.0,4.05,3.11,3.11,0,*7C
1498892638.41,49279,16.19,73324.0,4.05,3.23,3.23,0,*7D
1498892639.67,49280,16.19,73322.3,4.05,3.03,3.03,0,*7B
1498892640.92,49281,16.19,73320.8,4.05,3.23,3.23,0,*7A
1498892642.15,49282,16.19,73320.0,4.05,3.25,3.23,0,*7F
1498892643.38,49283,16.19,73322.5,4.05,3.33,3.25,0,*7F
1498892644.61,49284,16.19,73324.8,4.07,3.33,3.33,0,*7D
1498892645.86,49285,16.19,73320.0,4.05,2.77,2.77,0,*7E
1498892647.07,49286,16.19,73320.0,4.05,2.65,2.65,0,*7D
1498892648.31,49287,16.19,73322.8,4.03,3.07,3.07,0,*7A
1498892649.53,49288,16.19,73320.0,4.03,3.19,3.11,0,*7D
1498892650.71,49289,16.19,73320.0,4.03,3.29,3.29,0,*74
1498892651.93,49290,16.19,73322.8,4.03,3.33,3.33,0,*7C
1498892653.16,49291,16.19,73324.0,4.03,3.37,3.37,0,*7D
1498892654.38,49292,16.19,73320.5,4.03,3.33,3.37,0,*7A
1498892655.61,49293,16.19,73322.3,4.03,3.45,3.37,0,*7A
1498892656.83,49294,16.19,73324.0,4.03,3.45,3.33,0,*79
1498892658.06,49295,16.19,73320.8,4.03,3.33,3.37,0,*7D
1498892659.28,49296,16.19,73322.8,4.03,3.33,3.33,0,*7A
1498892660.51,49297,16.19,73320.0,4.03,3.33,3.33,0,*7B
1498892661.73,49298,16.19,73320.5,4.03,3.45,3.37,0,*71
1498892662.96,49299,16.19,73322.8,4.03,3.45,3.45,0,*75
1498892664.21,49300,16.19,73322.0,4.05,3.53,3.53,0,*72
1498892665.47,49301,16.19,73322.0,4.05,3.41,3.41,0,*73
1498892666.74,49302,16.19,73320.8,4.05,3.37,3.41,0,*71
1498892667.99,49303,16.19,73322.3,4.05,3.49,3.41,0,*79
1498892669.22,49304,16.19,73324.8,4.07,3.37,3.37,0,*74
1498892670.48,49305,16.19,73322.8,4.05,3.37,3.41,0,*76
1498892671.74,49306,16.19,73322.5,4.05,3.37,3.37,0,*74
1498892672.99,49307,16.19,73322.3,4.05,3.37,3.37,0,*75
1498892674.26,49308,16.19,73320.5,4.05,3.41,3.41,0,*7A
1498892675.52,49309,16.19,73320.3,4.05,3.41,3.37,0,*7A
1498892676.77,49310,16.19,73324.5,4.05,3.41,3.37,0,*72
1498892678.03,49311,16.19,73322.5,4.05,3.41,3.37,0,*73
1498892679.29,49312,16.19,73320.3,4.05,3.41,3.37,0,*70
1498892680.55,49313,16.19,73320.5,4.05,2.81,2.81,0,*70
1498892681.78,49314,16.19,73320.8,4.03,3.11,3.19,0,*79
1498892682.97,49315,16.19,73322.5,4.03,3.19,3.29,0,*73
1498892684.2,49316,16.19,73320.3,4.03,3.37,3.33,0,*77
1498892685.46,49317,16.19,73318.8,4.05,3.41,3.49,0,*7C
1498892686.67,49318,16.19,73320.5,4.07,3.63,3.49,0,*71
1498892687.92,49319,16.19,73320.0,4.05,3.49,3.53,0,*71
1498892689.17,49320,16.19,73320.5,4.05,3.37,3.37,0,*70
1498892690.42,49321,16.19,73320.3,4.05,3.33,3.23,0,*70
1498892691.65,49322,16.19,73320.5,4.05,3.33,3.25,0,*75
1498892692.9,49323,16.19,73322.5,4.05,3.33,3.37,0,*77
1498892694.15,49324,16.19,73320.5,4.05,3.49,3.49,0,*74
1498892695.38,49325,16.19,73320.3,4.05,3.53,3.59,0,*7F
1498892696.61,49326,16.19,73318.3,4.05,3.71,3.63,0,*75
1498892697.81,49327,16.19,73322.0,4.05,3.59,3.59,0,*77
1498892699.01,49328,16.19,73320.0,4.05,3.63,3.63,0,*78
1498892700.21,49329,16.19,73320.0,4.05,3.59,3.63,0,*70
1498892701.39,49330,16.19,73322.0,4.07,3.63,3.63,0,*73
1498892702.65,49331,16.19,73322.5,4.05,3.23,3.15,0,*75
1498892703.87,49332,16.19,73322.3,4.05,2.27,2.21,0,*75
1498892705.13,49333,16.19,73318.3,4.05,2.51,2.39,0,*7C
1498892706.36,49334,16.19,73322.0,4.03,2.55,2.47,0,*70
1498892707.6,49335,16.19,73322.0,4.01,1.89,1.71,0,*77
1498892708.83,49336,16.19,73320.5,3.99,2.25,2.09,0,*7B
1498892710.07,49337,16.19,73322.8,3.97,2.27,2.17,0,*79
1498892711.3,49338,16.19,73322.0,3.97,2.39,2.27,0,*7A
1498892712.53,49339,16.19,73318.8,3.97,2.47,2.31,0,*75
1498892713.78,49340,16.19,73320.0,3.97,2.55,2.43,0,*7D
1498892715.04,49341,16.19,73320.5,3.97,2.59,2.43,0,*70
1498892716.28,49342,16.19,73316.5,3.97,2.65,2.55,0,*7B
1498892717.53,49343,16.19,73318.3,3.95,2.81,2.77,0,*72
1498892718.75,49344,16.19,73316.0,3.95,2.99,2.81,0,*75
1498892719.98,49345,16.19,73322.8,3.95,3.03,2.91,0,*77
1498892721.18,49346,16.19,73320.0,3.93,3.07,2.95,0,*72
1498892722.43,49347,16.19,73322.5,3.95,3.23,3.11,0,*7E
1498892723.68,49348,16.19,73316.8,3.95,3.15,3.23,0,*75
1498892724.9,49349,16.19,73320.5,3.95,3.25,3.23,0,*77
1498892726.1,49350,16.19,73316.0,3.95,3.25,3.25,0,*79
1498892727.32,49351,16.19,73320.0,3.95,2.89,2.91,0,*71
1498892728.55,49352,16.19,73322.0,3.95,2.91,2.89,0,*72
1498892729.8,49353,16.19,73314.8,3.97,3.23,3.23,0,*78
1498892731.01,49354,16.19,73322.0,3.99,3.29,3.33,0,*7A
1498892732.25,49355,16.19,73318.3,3.97,3.29,3.37,0,*71
1498892733.5,49356,16.19,73322.3,3.97,3.37,3.37,0,*7D
1498892734.75,49357,16.19,73320.5,3.97,3.49,3.37,0,*75
1498892736.02,49358,16.19,73318.0,3.97,3.41,3.41,0,*73
1498892737.28,49359,16.19,73316.0,3.97,3.41,3.41,0,*72
1498892738.52,49360,16.19,73320.5,3.99,3.45,3.45,0,*76
1498892739.72,49361,16.19,73318.5,3.99,2.85,2.91,0,*72
1498892740.97,49362,16.19,73320.0,3.97,3.23,3.19,0,*73
1498892742.2,49363,16.19,73320.5,3.97,3.29,3.23,0,*71
1498892743.42,49364,16.19,73318.8,3.99,3.29,3.33,0,*79
1498892744.62,49365,16.19,73316.5,3.99,3.19,3.25,0,*7C
1498892745.82,49366,16.19,73318.3,3.99,3.19,3.25,0,*7F
1498892747.01,49367,16.19,73320.3,3.99,3.29,3.25,0,*7D
1498892748.19,49368,16.19,73320.8,3.99,3.29,3.25,0,*72
1498892749.42,49369,16.19,73320.8,3.99,3.33,3.33,0,*7F
1498892750.67,49370,16.19,73316.0,3.99,3.15,3.15,0,*77
1498892751.85,49371,16.19,73318.5,3.99,3.25,3.25,0,*76
1498892753.03,49372,16.19,73320.0,3.99,3.29,3.25,0,*79
1498892754.22,49373,16.19,73316.5,3.99,3.25,3.25,0,*74
1498892755.45,49374,16.19,73320.8,3.99,3.19,3.15,0,*7F
1498892756.65,49375,16.19,73322.8,3.99,3.25,3.19,0,*7D
1498892757.89,49376,16.19,73316.8,3.99,3.15,3.19,0,*7D
1498892759.07,49377,16.19,73320.0,3.99,3.25,3.29,0,*7C
1498892760.26,49378,16.19,73322.3,3.99,3.29,3.29,0,*7F
1498892761.44,49379,16.19,73320.5,3.99,3.29,3.29,0,*7E
1498892762.63,49380,16.19,73318.0,3.99,3.29,3.29,0,*78
1498892763.81,49381,16.19,73316.0,3.99,3.29,3.25,0,*75
1498892764.99,49382,16.19,73320.5,3.99,3.29,3.25,0,*76
1498892766.18,49383,16.19,73318.5,3.99,3.29,3.25,0,*77
1498892767.36,49384,16.19,73316.0,3.99,3.29,3.25,0,*70
1498892768.59,49385,16.19,73322.0,3.99,3.33,3.33,0,*7D
1498892769.83,49386,16.19,73322.3,3.99,3.45,3.33,0,*7F
1498892771.06,49387,16.19,73318.8,3.99,3.45,3.45,0,*7F
1498892772.27,49388,16.19,73316.5,3.99,3.25,3.33,0,*77
1498892773.48,49389,16.19,73320.3,4.01,3.25,3.25,0,*77
1498892774.69,49390,16.19,73322.5,4.01,3.29,3.29,0,*7F
1498892775.95,49391,16.19,73316.3,4.01,3.41,3.41,0,*7E
1498892777.21,49392,16.19,73320.5,4.01,3.41,3.49,0,*75
1498892778.41,49393,16.19,73320.3,4.03,3.55,3.49,0,*73
1498892779.61,49394,16.19,73322.3,4.03,3.59,3.49,0,*78
1498892780.84,49395,16.19,73318.3,4.01,3.53,3.55,0,*7C
1498892782.06,49396,16.19,73318.3,4.01,3.55,3.53,0,*7F
1498892783.26,49397,16.19,73318.3,4.01,3.55,3.55,0,*78
1498892784.46,49398,16.19,73318.5,4.01,3.63,3.55,0,*72
1498892785.66,49399,16.19,73318.3,4.01,3.63,3.55,0,*73
1498892786.88,49400,16.19,73320.8,4.01,2.85,2.91,0,*74
1498892788.06,49401,16.19,73316.8,4.03,2.61,2.61,0,*72
1498892789.33,49402,16.19,73322.5,4.01,1.29,1.17,0,*7E
1498892790.58,49403,16.19,73318.3,3.97,2.05,1.85,0,*71
1498892791.84,49404,16.19,73318.3,3.97,2.47,2.47,0,*7D
1498892793.08,49405,16.19,73320.8,3.99,2.81,2.73,0,*7F
1498892794.33,49406,16.19,73318.5,3.97,2.69,2.69,0,*7F
1498892795.58,49407,16.19,73318.8,3.97,2.89,2.89,0,*7E
1498892796.84,49408,16.19,73322.5,3.97,3.11,3.03,0,*72
1498892798.05,49409,16.19,73318.5,3.97,2.99,2.91,0,*78
1498892799.28,49410,16.19,73320.0,3.97,3.03,2.99,0,*7A
1498892800.51,49411,16.19,73320.8,3.93,3.11,3.11,0,*7D
1498892801.76,49412,16.19,73318.3,3.95,3.11,3.11,0,*78
1498892803.01,49413,16.19,73322.5,3.95,3.15,3.23,0,*7C
1498892804.26,49414,16.19,73320.5,3.95,3.15,3.23,0,*7B
1498892805.51,49415,16.19,73320.0,3.95,3.15,3.19,0,*73
1498892806.76,49416,16.13,73318.3,3.95,3.23,3.23,0,*7C
1498892807.97,49417,16.13,73318.5,3.93,3.19,3.19,0,*7B
1498892809.23,49418,16.19,73316.3,3.97,3.23,3.23,0,*70
1498892810.43,49419,16.13,73316.5,3.97,2.91,2.99,0,*79
1498892811.7,49420,16.19,73316.3,3.97,3.11,3.03,0,*78
1498892812.95,49421,16.19,73318.8,3.97,3.15,3.23,0,*7F
1498892814.21,49422,16.19,73318.5,3.97,2.89,2.81,0,*71
1498892815.42,49423,16.19,73316.0,3.97,2.99,2.99,0,*78
1498892816.68,49424,16.19,73320.0,3.97,3.11,3.11,0,*7F
1498892817.93,49425,16.13,73318.3,3.95,3.11,3.11,0,*7C
1498892819.17,49426,16.19,73318.3,3.95,3.23,3.23,0,*7F
1498892820.37,49427,16.19,73320.8,3.95,3.25,3.25,0,*7E
1498892821.57,49428,16.19,73320.0,3.95,3.25,3.25,0,*71
1498892822.77,49429,16.19,73322.8,3.95,3.25,3.25,0,*70
1498892823.97,49430,16.19,73320.5,3.93,3.25,3.23,0,*78
1498892825.18,49431,16.13,73316.0,3.93,3.19,3.19,0,*7F
1498892826.38,49432,16.19,73316.0,3.93,3.25,3.19,0,*73
1498892827.6,49433,16.19,73320.3,3.95,3.25,3.23,0,*7D
1498892828.8,49434,16.13,73318.5,3.95,3.25,3.29,0,*70
1498892830.0,49435,16.19,73320.3,3.95,3.25,3.25,0,*7D
1498892831.2,49436,16.13,73318.0,3.95,3.25,3.25,0,*7E
1498892832.42,49437,16.19,73318.8,3.95,3.23,3.25,0,*79
1498892833.68,49438,16.13,73318.8,3.95,3.15,3.15,0,*70
1498892834.9,49439,16.19,73316.8,3.95,3.25,3.23,0,*77
1498892836.12,49440,16.13,73318.3,3.95,3.25,3.23,0,*79
1498892837.32,49441,16.13,73316.5,3.95,3.29,3.25,0,*72
1498892838.52,49442,16.13,73312.8,3.95,2.99,2.99,0,*7D
1498892839.77,49443,16.13,73316.0,3.95,3.23,3.11,0,*7D
1498892841.01,49444,16.19,73316.8,3.95,3.23,3.23,0,*7B
1498892842.27,49445,16.19,73318.8,3.97,3.23,3.23,0,*78
1498892843.5,49446,16.19,73318.8,3.97,3.25,3.23,0,*7D
1498892844.7,49447,16.19,73316.0,3.95,3.29,3.25,0,*74
1498892845.9,49448,16.13,73318.5,3.95,3.29,3.29,0,*77
1498892847.1,49449,16.19,73318.5,3.95,3.29,3.25,0,*7A
1498892848.31,49450,16.13,73316.3,3.97,3.25,3.29,0,*70
1498892849.56,49451,16.19,73320.3,3.97,3.37,3.37,0,*7D
1498892850.82,49452,16.13,73316.5,3.97,3.37,3.41,0,*7F
1498892852.09,49453,16.19,73316.0,3.97,3.41,3.41,0,*7F
1498892853.3,49454,16.13,73314.8,3.97,3.25,3.25,0,*78
1498892854.55,49455,16.13,73316.3,3.97,3.23,3.23,0,*79
1498892855.81,49456,16.19,73320.3,3.97,3.23,3.23,0,*7A
1498892857.04,49457,16.13,73316.0,3.97,3.25,3.23,0,*7D
1498892858.26,49458,16.19,73318.3,3.97,3.25,3.23,0,*72
1498892859.47,49459,16.13,73318.3,3.97,3.29,3.25,0,*79
1498892860.71,49460,16.19,73318.5,3.97,3.37,3.29,0,*70
1498892861.94,49461,16.19,73316.8,3.97,2.99,3.03,0,*7C
1498892863.13,49462,16.19,73316.8,3.95,2.99,2.99,0,*7F
1498892864.35,49463,16.13,73318.5,3.95,3.25,3.23,0,*78
1498892865.58,49464,16.19,73318.8,3.95,3.37,3.29,0,*76
1498892866.84,49465,16.13,73316.0,3.97,3.41,3.41,0,*7A
1498892868.09,49466,16.13,73312.8,3.95,3.49,3.41,0,*73
1498892869.34,49467,16.13,73316.5,3.95,3.49,3.49,0,*7A
1498892870.56,49468,16.19,73316.5,3.99,3.53,3.53,0,*79
1498892871.81,49469,16.19,73318.5,3.97,3.53,3.53,0,*76
1498892873.07,49470,16.13,73314.0,3.97,3.49,3.49,0,*7E
1498892874.33,49471,16.19,73316.3,3.97,3.49,3.41,0,*77
1498892875.58,49472,16.13,73314.8,3.97,3.49,3.41,0,*74
1498892876.83,49473,16.13,73316.8,3.97,3.49,3.53,0,*76
1498892878.09,49474,16.19,73318.3,3.97,3.49,3.49,0,*7A
1498892879.32,49475,16.19,73316.5,3.99,2.09,1.85,0,*72
1498892880.58,49476,16.13,73314.3,3.97,2.17,2.09,0,*77
1498892881.83,49477,16.13,73312.5,3.95,2.59,2.55,0,*77
1498892883.05,49478,16.13,73314.5,3.93,2.77,2.73,0,*76
1498892884.28,49479,16.19,73318.0,3.95,3.03,2.99,0,*77
1498892885.5,49480,16.13,73312.8,3.95,2.65,2.59,0,*7C
1498892886.7,49481,16.13,73314.0,3.93,2.39,2.27,0,*7B
1498892887.92,49482,16.13,73312.8,3.93,2.77,2.77,0,*77
1498892889.14,49483,16.13,73314.8,3.93,2.85,2.89,0,*7A
1498892890.34,49484,16.13,73314.8,3.93,2.99,3.07,0,*77
1498892891.56,49485,16.19,73316.8,3.93,3.11,3.19,0,*78
1498892892.8,49486,16.13,73314.0,3.95,3.19,3.23,0,*7C
1498892894.0,49487,16.13,73312.0,3.93,3.25,3.19,0,*7D
1498892895.17,49488,16.13,73314.3,3.93,3.25,3.25,0,*7D
1498892896.34,49489,16.19,73316.0,3.93,3.25,3.25,0,*7C
1498892897.56,49490,16.19,73318.3,3.93,3.19,3.23,0,*7D
1498892898.78,49491,16.13,73312.0,3.93,3.11,3.11,0,*75
1498892899.98,49492,16.13,73314.3,3.93,3.25,3.23,0,*70
1498892901.2,49493,16.13,73314.8,3.93,3.23,3.23,0,*77
1498892902.4,49494,16.13,73314.5,3.95,3.25,3.25,0,*76
1498892903.57,49495,16.19,73314.5,3.93,3.25,3.25,0,*71
1498892904.82,49496,16.13,73310.3,3.95,3.37,3.37,0,*74
1498892905.99,49497,16.13,73314.0,3.93,3.25,3.25,0,*73
1498892907.21,49498,16.13,73314.3,3.93,3.33,3.23,0,*7D
1498892908.43,49499,16.19,73314.5,3.93,3.23,3.23,0,*7D
1498892909.65,49500,16.19,73314.5,3.93,3.33,3.37,0,*78
1498892910.87,49501,16.13,73312.0,3.93,3.37,3.37,0,*7D
1498892912.1,49502,16.13,73312.8,3.93,3.41,3.33,0,*7B
1498892913.32,49503,16.19,73318.3,3.93,3.33,3.33,0,*7F
1498892914.54,49504,16.13,73312.5,3.93,3.37,3.33,0,*7C
1498892915.77,49505,16.19,73316.8,3.93,3.37,3.33,0,*7D
1498892916.94,49506,16.13,73314.5,3.93,2.99,2.95,0,*76
1498892918.19,49507,16.13,73310.3,3.95,3.23,3.15,0,*78
1498892919.39,49508,16.13,73312.5,3.95,3.29,3.25,0,*7E
1498892920.62,49509,16.13,73314.0,3.93,3.11,3.11,0,*75
1498892921.82,49510,16.13,73312.3,3.95,3.25,3.25,0,*7B
1498892923.04,49511,16.13,73314.8,3.93,3.37,3.37,0,*7C
1498892924.26,49512,16.19,73314.3,3.93,3.33,3.37,0,*7B
1498892925.52,49513,16.19,73314.8,3.95,3.41,3.41,0,*78
1498892926.77,49514,16.19,73312.3,3.95,3.41,3.49,0,*77
1498892928.02,49515,16.19,73316.8,3.95,3.41,3.53,0,*7D
1498892929.27,49516,16.19,73316.3,3.95,3.11,3.11,0,*7D
1498892930.51,49517,16.19,73312.8,3.95,3.23,3.23,0,*7C
1498892931.76,49518,16.13,73310.5,3.95,3.23,3.23,0,*73
1498892932.93,49519,16.13,73314.0,3.93,3.25,3.25,0,*74
1498892934.15,49520,16.13,73314.0,3.93,3.33,3.37,0,*7A
1498892935.37,49521,16.13,73314.5,3.93,3.37,3.37,0,*7F